This is the latest recevied weather packets stored in our database for station/object W0BJ-1. If no packets are shown the sender has not sent any weather packets the latest 10 day(s).
| Time | Temp. | Humidity | Pressure | Rain* | Wind** | Luminosity | Snow |
|---|---|---|---|---|---|---|---|
| 1777594552 | 15.56° C | 50% | 1015 hPa | 0 mm | - | 0 W/m² | - |
| 1777593644 | 16.11° C | 47% | 1014.6 hPa | 0 mm | - | 0 W/m² | - |
| 1777593337 | 16.11° C | 47% | 1014.5 hPa | 0 mm | - | 7 W/m² | - |
| 1777591538 | 16.67° C | 44% | 1014.6 hPa | 0 mm | - | 46 W/m² | - |
| 1777588539 | 18.33° C | 39% | 1014.6 hPa | 0 mm | - | 167 W/m² | - |
| 1777586737 | 18.33° C | 39% | 1014.9 hPa | 0 mm | - | 403 W/m² | - |
| 1777586458 | 18.33° C | 39% | 1014.9 hPa | 0 mm | - | 311 W/m² | - |
| 1777584339 | 18.89° C | 39% | 1015.6 hPa | 0 mm | - | 520 W/m² | - |
| 1777583139 | 18.89° C | 40% | 1015.9 hPa | 0 mm | - | 768 W/m² | - |
| 1777581052 | 17.22° C | 41% | 1016.7 hPa | 0 mm | - | 297 W/m² | - |
| 1777578358 | 16.67° C | 39% | 1017.1 hPa | 0 mm | - | 330 W/m² | - |
| 1777578037 | 17.22° C | 38% | 1017.1 hPa | 0 mm | - | 234 W/m² | - |
| 1777577739 | 17.22° C | 39% | 1017.1 hPa | 0 mm | - | 246 W/m² | - |
| 1777573856 | 17.78° C | 38% | 1017.6 hPa | 0 mm | - | 478 W/m² | - |
| 1777573538 | 17.78° C | 40% | 1017.7 hPa | 0 mm | - | 557 W/m² | - |
| 1777572054 | 18.33° C | 34% | 1018.2 hPa | 0 mm | - | 684 W/m² | - |
| 1777571437 | 18.33° C | 34% | 1018.5 hPa | 0 mm | - | 1069 W/m² | - |
| 1777569940 | 17.78° C | 35% | 1018.9 hPa | 0 mm | - | 1102 W/m² | - |
| 1777568460 | 16.67° C | 37% | 1019.3 hPa | 0 mm | - | 1005 W/m² | - |
| 1777568137 | 16.67° C | 34% | 1019.4 hPa | 0 mm | - | 589 W/m² | - |
| 1777566941 | 16.67° C | 36% | 1019.4 hPa | 0 mm | - | 824 W/m² | - |
| 1777565752 | 16.67° C | 39% | 1019.4 hPa | 0 mm | - | 826 W/m² | - |
| 1777563340 | 16.11° C | 45% | 1019.4 hPa | 0 mm | - | 740 W/m² | - |
| 1777560943 | 15.56° C | 46% | 1019 hPa | 0 mm | - | 643 W/m² | - |
| 1777558567 | 14.44° C | 53% | 1019.1 hPa | 0 mm | - | 531 W/m² | - |
* Rain latest hour (hover to see other rain measurements)
** Current wind speed in m/s (hover to see current wind gust speed)